Home > Time Zones > World Clock > Weather > Yemen > Sana > Past weeks

Flag for Yemen Weather past 2 weeks in Sana, Yemen

Now
75 °F

Passing clouds.


Feels Like: 75 °F
Forecast: 51 / 73 °F
Wind: 9 mph from East

Location: Sana'A Airport

Current Time: Oct 23, 2014 at 2:57:37 PM

Latest Report: Oct 23, 2014 at 2:00 PM


Visibility: N/A

Pressure: 30.33 "Hg

Humidity: 12%

Dew point: 19 °F

Location of SanaLocation

Historic Weather in Sana — Graph

°F

Sana temperature yesterday

Maximum temperature yesterday: 77 °F (at 2:00 PM)
Minimum temperature yesterday: 50 °F (at 4:00 AM)
Average temperature yesterday: 63 °F

Past Weeks' High & Low Weather Summary

 TemperatureHumidityPressure
High79 °F (Oct 20, 2:00 PM)60% (Oct 8, 3:00 PM)30.42 "Hg (Oct 8, 3:00 PM)
Low48 °F (Oct 23, 6:00 AM)13% (Oct 17, 4:00 PM)30.21 "Hg (Oct 19, 2:00 PM)
Average65 °F28%30.32 "Hg
* Reported Oct 8 1:00 PM — Oct 23 1:00 PM, Sana, Weather by CustomWeather, © 2014

Note: Actual official high and low records may vary slightly from our data, if they occured in-between our weather recording intervals... More about our weather records

Advertising

Sana weather history for previous 24 hours

 ConditionsComfort  
Time TempWeatherWind HumidityBarometerVisibility
1:00 PM
Oct 23
73 °FPassing clouds.10 mph13%30.36 "HgN/A
12:00 PM72 °FPassing clouds.8 mph15%30.39 "HgN/A
11:00 AM70 °FPassing clouds.10 mph16%30.42 "HgN/A
10:00 AM68 °FPassing clouds.10 mph20%30.42 "HgN/A
9:00 AM66 °FPassing clouds.9 mph19%30.42 "HgN/A
8:00 AM59 °FPassing clouds.2 mph23%30.42 "HgN/A
7:00 AM52 °FPassing clouds.2 mph30%30.42 "HgN/A
6:00 AM48 °FPassing clouds.2 mph34%30.39 "HgN/A
5:00 AM50 °FPassing clouds.3 mph30%30.36 "HgN/A
4:00 AM52 °FPassing clouds.3 mph28%30.36 "HgN/A
3:00 AM54 °FPassing clouds.2 mph26%30.36 "HgN/A
2:00 AM57 °FPassing clouds.1 mph25%30.36 "HgN/A
1:00 AM55 °FPassing clouds.5 mph31%30.36 "HgN/A
12:00 AM54 °FPassing clouds.1 mph28%30.39 "HgN/A
11:00 PM
Oct 22
61 °FPassing clouds.3 mph25%30.39 "HgN/A
10:00 PM61 °FPassing clouds.3 mph23%30.39 "HgN/A
9:00 PM61 °FPassing clouds.3 mph23%30.39 "HgN/A
8:00 PM64 °FPassing clouds.5 mph21%30.36 "HgN/A
7:00 PM66 °FPassing clouds.6 mph21%30.36 "Hg5 mi
6:00 PM70 °FPassing clouds.10 mph16%30.33 "Hg5 mi
5:00 PM73 °FPassing clouds.9 mph14%30.30 "Hg5 mi
4:00 PM75 °FPassing clouds.10 mph13%30.30 "Hg5 mi
3:00 PM77 °FPassing clouds.12 mph13%30.30 "HgN/A
2:00 PM77 °FPassing clouds.12 mph15%30.30 "HgN/A
Weather by CustomWeather, © 2014

See weather overviewHow to use our weather pages